User: anonymous   Login
Location: Unspecified
(0.0000°N, 0.0000°E)
Time: 16:57:49
(UTC+01:00)
Language:

Ariane H10 - Orbit

View from above orbital plane
View from above orbital plane
View from above satellite
View from above satellite

Ground track
Ground track

The orbit data is extracted from the following two-line orbital elements,

1 21727U 91067B   14327.17934624  .00000220  00000-0  87535-3 0  3219
2 21727 004.5836 356.8607 7189522 108.1863 354.3862 02.31423685156213
Epoch (UTC): 23 November 2014 04:18:15
Eccentricity: 0.7189522
inclination: 4.5836°
perigee height: 407 km
apogee height: 35122 km
right ascension of ascending node: 356.8607°
argument of perigee: 108.1863°
revolutions per day: 2.31423685
mean anomaly at epoch: 354.3862°
orbit number at epoch: 15621

The dashed part of the orbit path shows where the satellite is in the earth's shadow,  

DLR